This is the latest recevied weather packets stored in our database for station/object KD9JB-1. If no packets are shown the sender has not sent any weather packets the latest 10 day(s).
| Time | Temp. | Humidity | Pressure | Rain* | Wind** | Luminosity | Snow |
|---|---|---|---|---|---|---|---|
| 1777552308 | 7.78° C | 83% | 1018.5 hPa | 0 mm | - | - | - |
| 1777552008 | 7.78° C | 83% | 1018.5 hPa | 0 mm | - | - | - |
| 1777551708 | 7.78° C | 84% | 1018.4 hPa | 0 mm | - | - | - |
| 1777551408 | 7.78° C | 84% | 1018.3 hPa | 0 mm | - | - | - |
| 1777551108 | 7.22° C | 85% | 1018.3 hPa | 0 mm | - | - | - |
| 1777550808 | 7.22° C | 85% | 1018.3 hPa | 0 mm | - | - | - |
| 1777550508 | 7.22° C | 86% | 1018.1 hPa | 0 mm | - | - | - |
| 1777550208 | 6.67° C | 86% | 1018.1 hPa | 0 mm | - | - | - |
| 1777549908 | 6.67° C | 86% | 1018 hPa | 0 mm | - | - | - |
| 1777549608 | 6.11° C | 87% | 1018.1 hPa | 0 mm | - | - | - |
| 1777549308 | 6.11° C | 88% | 1017.9 hPa | 0 mm | - | - | - |
| 1777549008 | 5.56° C | 89% | 1017.8 hPa | 0 mm | - | - | - |
| 1777548708 | 5.56° C | 90% | 1017.9 hPa | 0 mm | - | - | - |
| 1777548408 | 5° C | 89% | 1018 hPa | 0 mm | - | - | - |
| 1777548108 | 5° C | 89% | 1017.9 hPa | 0 mm | - | - | - |
| 1777547808 | 5° C | 89% | 1017.8 hPa | 0 mm | - | - | - |
| 1777547508 | 5° C | 89% | 1017.7 hPa | 0 mm | - | - | - |
| 1777547208 | 5° C | 89% | 1017.7 hPa | 0 mm | - | - | - |
| 1777546908 | 5° C | 89% | 1017.6 hPa | 0 mm | - | - | - |
| 1777546608 | 5° C | 88% | 1017.5 hPa | 0 mm | - | - | - |
| 1777546308 | 5.56° C | 88% | 1017.4 hPa | 0 mm | - | - | - |
| 1777546008 | 5.56° C | 88% | 1017.2 hPa | 0 mm | - | - | - |
| 1777545708 | 5.56° C | 88% | 1017.3 hPa | 0 mm | - | - | - |
| 1777545408 | 5.56° C | 88% | 1017.1 hPa | 0 mm | - | - | - |
| 1777545108 | 5.56° C | 87% | 1017.1 hPa | 0 mm | - | - | - |
* Rain latest hour (hover to see other rain measurements)
** Current wind speed in m/s (hover to see current wind gust speed)